Simultaneous Nadir Overpasses (SNOs) Predictions

Prediction of SNOs between METOP-B and TERRA Satellite Orbit:

Table of predicted SNOs for the next 14.0 days since TLE Epoch: 8/10/2024
Index Date (METOP-B) Time (METOP-B) Lat,Lon (METOP-B) SZA (METOP-B ) Date (TERRA) Time (TERRA) Lat,Lon (TERRA) SZA (TERRA ) Distance(km) Time Diff (sec)
1 08/12/2024 11:14:57 -79.83,-151.52 114.56 08/12/2024 11:15:46 -79.83,-151.48 114.54 0.89 49
2 08/12/2024 12:05:30 80.05, 17.97 65.79 08/12/2024 12:05:01 80.05, 17.88 65.78 1.77 29
3 08/15/2024 01:45:17 -79.87, -8.70 113.68 08/15/2024 01:46:06 -79.87, -8.79 113.68 1.92 49
4 08/15/2024 02:35:53 80.01, 159.91 66.53 08/15/2024 02:35:23 80.01, 159.98 66.54 1.68 30
5 08/17/2024 16:15:41 -79.78, 132.88 112.98 08/17/2024 16:16:28 -79.79, 132.98 112.96 2.03 47
6 08/17/2024 17:06:13 80.04, -57.38 67.42 08/17/2024 17:05:42 80.04, -57.45 67.40 1.33 31
7 08/20/2024 06:46:00 -79.84, -84.23 112.04 08/20/2024 06:46:45 -79.84, -84.24 112.03 0.38 45
8 08/20/2024 07:36:36 79.97, 84.34 68.17 08/20/2024 07:36:02 79.98, 84.46 68.18 2.45 34
9 08/22/2024 21:16:19 -79.85, 58.28 111.14 08/22/2024 21:17:01 -79.84, 58.17 111.14 2.37 42



Historial Predications of SNOs between METOP-B and TERRA
